Weather History for KBFF - September, 2012

Change the Weather History Date:

Friday, September 28, 2012

  Actual Average Record
Temperature  
Mean Temperature 61 °F 56 °F  
Max Temperature 76 °F 72 °F 93 °F (2011)
Min Temperature 45 °F 40 °F 20 °F (1895)
Degree Days  
Heating Degree Days 4 10  
Month to date heating degree days 71 139  
Since 1 July heating degree days 76 159  
Cooling Degree Days 0 0  
Month to date cooling degree days 80 57  
Year to date cooling degree days 1205 722  
Growing Degree Days 10 (Base 50)    
Moisture  
Dew Point 46 °F    
Average Humidity 67    
Maximum Humidity 100    
Minimum Humidity 33    
Precipitation  
Precipitation 0.00 in 0.04 in 1.21 in (1973)
Month to date precipitation 0.79 1.10  
Year to date precipitation 5.64 13.40  
Snow  
Snow 0.00 in 0.00 in 4.50 in (1985)
Month to date snowfall 0.0 0.4  
Since 1 July snowfall 0.0 0.4  
Snow Depth 0.00 in    
Sea Level Pressure  
Sea Level Pressure 30.11 in    
Wind  
Wind Speed 8 mph (ESE)    
Max Wind Speed 16 mph    
Max Gust Speed 20 mph    
Visibility 7 miles    
Events Fog    
T = Trace of Precipitation, MM = Missing Value Source: NWS Daily Summary

Daily Weather History Graph

Daily Weather History Graph

Search for Another Location

Airport or City:

Trip Planner

Search our weather history database for the weather conditions in past years. The results will help you decide how hot, cold, wet, or windy it might be!

Date:

Astronomy

Sep. 28, 2012 Rise Set
Actual Time 6:48 AM MDT 6:40 PM MDT
Civil Twilight 6:20 AM MDT 7:08 PM MDT
Nautical Twilight 5:48 AM MDT 7:40 PM MDT
Astronomical Twilight 5:15 AM MDT 8:13 PM MDT
Moon 5:43 PM MDT (9/28) 5:21 AM MDT (9/28)
Length of Visible Light 12h 47m
Length of Day
11h 51m
Waxing Gibbous, 98% of the Moon is Illuminated
Sep 28
Waxing Gibbous
Sep 29
Full
Oct 8
Last Quarter
Oct 15
New
Oct 21
First Quarter

Hourly Weather History & Observations

Time (MDT) Temp. Windchill Dew Point Humidity Pressure Visibility Wind Dir Wind Speed Gust Speed Precip Events Conditions
12:53 AM 50.0 °F - 46.9 °F 89% 30.11 in 10.0 mi East 5.8 mph - N/A   Clear
1:53 AM 48.9 °F - 46.9 °F 93% 30.12 in 10.0 mi ESE 5.8 mph - N/A   Clear
2:53 AM 48.0 °F - 46.0 °F 93% 30.11 in 6.0 mi ESE 5.8 mph - N/A   Clear
3:53 AM 46.0 °F 42.5 °F 45.0 °F 96% 30.13 in 4.0 mi ESE 6.9 mph - N/A   Clear
4:53 AM 45.0 °F 41.2 °F 44.1 °F 97% 30.13 in 3.0 mi ESE 6.9 mph - N/A   Clear
5:53 AM 45.0 °F 41.2 °F 44.1 °F 97% 30.14 in 4.0 mi ESE 6.9 mph - N/A   Partly Cloudy
6:06 AM 46.4 °F 42.9 °F 44.6 °F 93% 30.19 in 4.0 mi ESE 6.9 mph - N/A   Mostly Cloudy
6:13 AM 46.4 °F 43.5 °F 44.6 °F 93% 30.19 in 1.5 mi SE 5.8 mph - N/A   Mostly Cloudy
6:18 AM 46.4 °F 44.3 °F 44.6 °F 93% 30.19 in 0.5 mi ESE 4.6 mph - N/A Fog Fog
6:26 AM 46.4 °F 42.9 °F 44.6 °F 93% 30.19 in 0.2 mi ESE 6.9 mph - N/A Fog Fog
6:53 AM 45.0 °F 42.6 °F 45.0 °F 100% 30.15 in 0.2 mi ESE 4.6 mph - N/A Fog Fog
7:02 AM 44.6 °F 42.2 °F 44.6 °F 100% 30.20 in 0.5 mi ESE 4.6 mph - N/A Fog Fog
7:17 AM 44.6 °F 43.1 °F 44.6 °F 100% 30.20 in 2.0 mi East 3.5 mph - N/A   Mostly Cloudy
7:25 AM 46.4 °F 44.3 °F 44.6 °F 93% 30.20 in 3.0 mi East 4.6 mph - N/A   Scattered Clouds
7:53 AM 48.0 °F - 46.9 °F 96% 30.17 in 5.0 mi East 4.6 mph - N/A   Clear
8:53 AM 53.1 °F - 50.0 °F 89% 30.17 in 10.0 mi SE 6.9 mph - N/A   Clear
9:53 AM 57.9 °F - 50.0 °F 75% 30.16 in 10.0 mi ESE 4.6 mph - N/A   Clear
10:53 AM 63.0 °F - 51.1 °F 65% 30.14 in 10.0 mi Variable 4.6 mph - N/A   Clear
11:53 AM 68.0 °F - 51.1 °F 55% 30.11 in 10.0 mi SE 10.4 mph - N/A   Clear
12:53 PM 73.0 °F - 48.0 °F 41% 30.08 in 10.0 mi ESE 9.2 mph 17.3 mph N/A   Partly Cloudy
1:53 PM 73.0 °F - 46.0 °F 38% 30.05 in 10.0 mi Variable 5.8 mph 16.1 mph N/A   Clear
2:53 PM 75.0 °F - 45.0 °F 34% 30.03 in 10.0 mi SSE 8.1 mph - N/A   Clear
3:53 PM 75.9 °F - 44.1 °F 32% 30.02 in 10.0 mi SSE 11.5 mph - N/A   Partly Cloudy
4:53 PM 75.0 °F - 44.1 °F 33% 30.01 in 10.0 mi SSE 11.5 mph - N/A   Clear
5:53 PM 72.0 °F - 44.1 °F 37% 30.02 in 10.0 mi SE 8.1 mph - N/A   Clear
6:53 PM 64.9 °F - 45.0 °F 48% 30.05 in 10.0 mi ESE 11.5 mph - N/A   Clear
7:53 PM 61.0 °F - 46.9 °F 60% 30.06 in 10.0 mi ESE 10.4 mph - N/A   Clear
8:53 PM 57.9 °F - 46.9 °F 67% 30.08 in 10.0 mi ESE 9.2 mph - N/A   Clear
9:53 PM 55.0 °F - 46.9 °F 74% 30.08 in 10.0 mi ESE 6.9 mph - N/A   Clear
10:53 PM 55.0 °F - 46.9 °F 74% 30.07 in 10.0 mi ESE 8.1 mph - N/A   Clear
11:53 PM 53.1 °F - 46.9 °F 80% 30.06 in 10.0 mi East 8.1 mph - N/A   Clear